Time,TemperatureF,DewpointF,PressureIn,WindDirection,WindDirectionDegrees,WindSpeedMPH,WindSpeedGustMPH,Humidity,HourlyPrecipIn,Conditions,Clouds,dailyrainin,SoftwareType,DateUTC
2013-11-06 00:00:00,46.9,38.4,30.30,SSE,157,3.7,-999.0,72,-99.99,,,0.00,Acu-Link.com,2013-11-06 05:00:00,
2013-11-06 00:15:00,46.9,39.1,30.30,East,90,1.7,-999.0,74,-99.99,,,0.00,Acu-Link.com,2013-11-06 05:15:00,
2013-11-06 00:30:00,46.9,39.1,30.29,East,90,4.2,-999.0,74,-99.99,,,0.00,Acu-Link.com,2013-11-06 05:30:00,
2013-11-06 00:45:00,46.9,39.4,30.29,NW,315,2.2,-999.0,75,-99.99,,,0.00,Acu-Link.com,2013-11-06 05:45:00,
2013-11-06 01:00:00,47.1,39.6,30.29,East,90,3.2,-999.0,75,-99.99,,,0.00,Acu-Link.com,2013-11-06 06:00:00,
2013-11-06 01:16:00,46.9,39.7,30.29,South,180,1.7,-999.0,76,-99.99,,,0.00,Acu-Link.com,2013-11-06 06:16:00,
2013-11-06 01:31:00,46.8,39.6,30.28,ENE,67,2.7,-999.0,76,-99.99,,,0.00,Acu-Link.com,2013-11-06 06:31:00,
2013-11-06 01:47:00,46.6,39.8,30.27,ENE,67,2.7,-999.0,77,-99.99,,,0.00,Acu-Link.com,2013-11-06 06:47:00,
2013-11-06 02:02:00,46.8,40.0,30.28,ENE,67,2.2,-999.0,77,-99.99,,,0.00,Acu-Link.com,2013-11-06 07:02:00,
2013-11-06 02:17:00,46.6,40.1,30.26,NE,45,2.7,-999.0,78,-99.99,,,0.00,Acu-Link.com,2013-11-06 07:17:00,
2013-11-06 02:32:00,46.6,40.1,30.26,South,180,3.7,-999.0,78,-99.99,,,0.00,Acu-Link.com,2013-11-06 07:32:00,
2013-11-06 02:47:00,46.6,40.1,30.25,NNE,22,2.7,-999.0,78,-99.99,,,0.00,Acu-Link.com,2013-11-06 07:47:00,
2013-11-06 03:03:00,46.6,40.1,30.23,South,180,2.2,-999.0,78,-99.99,,,0.00,Acu-Link.com,2013-11-06 08:03:00,
2013-11-06 03:18:00,46.8,40.3,30.24,NNE,22,2.7,-999.0,78,-99.99,,,0.00,Acu-Link.com,2013-11-06 08:18:00,
2013-11-06 03:33:00,46.8,40.6,30.23,NE,45,2.2,-999.0,79,-99.99,,,0.00,Acu-Link.com,2013-11-06 08:33:00,
2013-11-06 03:48:00,46.8,40.6,30.23,South,180,3.7,-999.0,79,-99.99,,,0.00,Acu-Link.com,2013-11-06 08:48:00,
2013-11-06 04:04:00,46.8,40.6,30.22,ESE,112,4.7,-999.0,79,-99.99,,,0.00,Acu-Link.com,2013-11-06 09:04:00,
2013-11-06 04:19:00,46.8,41.0,30.22,ENE,67,2.2,-999.0,80,-99.99,,,0.00,Acu-Link.com,2013-11-06 09:19:00,
2013-11-06 04:34:00,46.6,40.8,30.21,South,180,3.7,-999.0,80,-99.99,,,0.00,Acu-Link.com,2013-11-06 09:34:00,
2013-11-06 04:49:00,46.4,40.9,30.21,ESE,112,1.7,-999.0,81,-99.99,,,0.00,Acu-Link.com,2013-11-06 09:49:00,
2013-11-06 05:04:00,46.0,41.1,30.20,West,270,2.2,-999.0,83,-99.99,,,0.00,Acu-Link.com,2013-11-06 10:04:00,
2013-11-06 05:19:00,46.2,41.3,30.20,NW,315,2.7,-999.0,83,-99.99,,,0.00,Acu-Link.com,2013-11-06 10:19:00,
2013-11-06 05:35:00,46.4,41.8,30.20,West,270,3.2,-999.0,84,-99.99,,,0.00,Acu-Link.com,2013-11-06 10:35:00,
2013-11-06 05:50:00,46.6,42.0,30.20,NNE,22,2.2,-999.0,84,-99.99,,,0.00,Acu-Link.com,2013-11-06 10:50:00,
2013-11-06 06:05:00,46.2,41.9,30.20,West,270,2.7,-999.0,85,-99.99,,,0.00,Acu-Link.com,2013-11-06 11:05:00,
2013-11-06 06:20:00,45.7,41.8,30.19,East,90,3.2,-999.0,86,-99.99,,,0.00,Acu-Link.com,2013-11-06 11:20:00,
2013-11-06 06:35:00,45.3,41.7,30.19,West,270,2.2,-999.0,87,-99.99,,,0.00,Acu-Link.com,2013-11-06 11:35:00,
2013-11-06 06:50:00,45.1,42.3,30.18,ENE,67,3.2,-999.0,90,-99.99,,,0.00,Acu-Link.com,2013-11-06 11:50:00,
2013-11-06 07:05:00,45.5,42.4,30.17,ESE,112,6.8,-999.0,89,-99.99,,,0.00,Acu-Link.com,2013-11-06 12:05:00,
2013-11-06 07:20:00,46.0,42.6,30.16,WNW,292,3.2,-999.0,88,-99.99,,,0.00,Acu-Link.com,2013-11-06 12:20:00,
2013-11-06 07:35:00,47.1,43.1,30.17,NW,315,3.7,-999.0,86,-99.99,,,0.00,Acu-Link.com,2013-11-06 12:35:00,
2013-11-06 07:51:00,47.8,43.2,30.16,SSE,157,7.8,-999.0,84,-99.99,,,0.00,Acu-Link.com,2013-11-06 12:51:00,
2013-11-06 08:06:00,49.1,43.8,30.15,East,90,5.3,-999.0,82,-99.99,,,0.00,Acu-Link.com,2013-11-06 13:06:00,
2013-11-06 08:21:00,49.6,44.0,30.15,East,90,7.8,-999.0,81,-99.99,,,0.00,Acu-Link.com,2013-11-06 13:21:00,
2013-11-06 08:36:00,50.0,44.1,30.15,East,90,4.7,-999.0,80,-99.99,,,0.00,Acu-Link.com,2013-11-06 13:36:00,
2013-11-06 08:51:00,50.7,44.1,30.15,ESE,112,4.2,-999.0,78,-99.99,,,0.00,Acu-Link.com,2013-11-06 13:51:00,
2013-11-06 09:06:00,51.4,44.4,30.14,West,270,3.2,-999.0,77,-99.99,,,0.00,Acu-Link.com,2013-11-06 14:06:00,
2013-11-06 09:21:00,53.1,45.0,30.13,ESE,112,4.2,-999.0,74,-99.99,,,0.00,Acu-Link.com,2013-11-06 14:21:00,
2013-11-06 09:36:00,53.1,44.7,30.12,West,270,2.7,-999.0,73,-99.99,,,0.00,Acu-Link.com,2013-11-06 14:36:00,
2013-11-06 09:52:00,54.0,45.2,30.11,SSW,202,4.7,-999.0,72,-99.99,,,0.00,Acu-Link.com,2013-11-06 14:52:00,
2013-11-06 10:07:00,55.9,45.5,30.10,ESE,112,9.4,-999.0,68,-99.99,,,0.00,Acu-Link.com,2013-11-06 15:07:00,
2013-11-06 10:22:00,57.0,45.8,30.08,WSW,247,5.3,-999.0,66,-99.99,,,0.00,Acu-Link.com,2013-11-06 15:22:00,
2013-11-06 10:37:00,56.5,46.1,30.08,WNW,292,3.7,-999.0,68,-99.99,,,0.00,Acu-Link.com,2013-11-06 15:37:00,
2013-11-06 10:52:00,58.6,46.5,30.08,NNE,22,5.8,-999.0,64,-99.99,,,0.00,Acu-Link.com,2013-11-06 15:52:00,
2013-11-06 11:07:00,59.4,47.2,30.07,ESE,112,7.8,-999.0,64,-99.99,,,0.00,Acu-Link.com,2013-11-06 16:07:00,
2013-11-06 11:22:00,59.7,46.2,30.06,SE,135,6.3,-999.0,61,-99.99,,,0.00,Acu-Link.com,2013-11-06 16:22:00,
2013-11-06 11:38:00,60.3,47.7,30.05,SSW,202,4.7,-999.0,63,-99.99,,,0.00,Acu-Link.com,2013-11-06 16:38:00,
2013-11-06 11:53:00,60.1,47.0,30.05,NE,45,10.9,-999.0,62,-99.99,,,0.00,Acu-Link.com,2013-11-06 16:53:00,
2013-11-06 12:08:00,59.7,47.1,30.04,South,180,2.7,-999.0,63,-99.99,,,0.00,Acu-Link.com,2013-11-06 17:08:00,
2013-11-06 12:23:00,60.3,47.2,30.04,SW,225,5.8,-999.0,62,-99.99,,,0.00,Acu-Link.com,2013-11-06 17:23:00,
2013-11-06 12:38:00,59.7,47.5,30.03,ESE,112,5.3,-999.0,64,-99.99,,,0.00,Acu-Link.com,2013-11-06 17:38:00,
2013-11-06 12:53:00,59.4,47.6,30.03,SW,225,2.7,-999.0,65,-99.99,,,0.00,Acu-Link.com,2013-11-06 17:53:00,
2013-11-06 13:08:00,58.6,47.7,30.02,South,180,4.2,-999.0,67,-99.99,,,0.00,Acu-Link.com,2013-11-06 18:08:00,
2013-11-06 13:23:00,58.8,47.9,30.02,NE,45,5.3,-999.0,67,-99.99,,,0.00,Acu-Link.com,2013-11-06 18:23:00,
2013-11-06 13:38:00,58.6,47.7,30.00,WSW,247,2.7,-999.0,67,-99.99,,,0.00,Acu-Link.com,2013-11-06 18:38:00,
2013-11-06 13:53:00,59.2,49.0,29.99,ENE,67,4.7,-999.0,69,-99.99,,,0.00,Acu-Link.com,2013-11-06 18:53:00,
2013-11-06 14:09:00,57.7,48.7,29.97,East,90,3.2,-999.0,72,-99.99,,,0.00,Acu-Link.com,2013-11-06 19:09:00,
2013-11-06 14:24:00,57.4,48.8,29.97,SSE,157,4.2,-999.0,73,-99.99,,,0.00,Acu-Link.com,2013-11-06 19:24:00,
2013-11-06 14:39:00,57.6,48.6,29.96,ESE,112,9.9,-999.0,72,-99.99,,,0.00,Acu-Link.com,2013-11-06 19:39:00,
2013-11-06 14:54:00,58.3,49.3,29.94,ESE,112,6.3,-999.0,72,-99.99,,,0.00,Acu-Link.com,2013-11-06 19:54:00,
2013-11-06 15:09:00,58.6,49.6,29.93,ESE,112,5.3,-999.0,72,-99.99,,,0.00,Acu-Link.com,2013-11-06 20:09:00,
2013-11-06 15:24:00,59.5,50.1,29.94,ESE,112,4.7,-999.0,71,-99.99,,,0.00,Acu-Link.com,2013-11-06 20:24:00,
2013-11-06 15:39:00,60.6,50.4,29.93,ENE,67,8.9,-999.0,69,-99.99,,,0.00,Acu-Link.com,2013-11-06 20:39:00,
2013-11-06 15:54:00,59.9,50.1,29.92,ESE,112,6.3,-999.0,70,-99.99,,,0.00,Acu-Link.com,2013-11-06 20:54:00,
2013-11-06 16:09:00,58.6,50.0,29.91,ENE,67,3.2,-999.0,73,-99.99,,,0.00,Acu-Link.com,2013-11-06 21:09:00,
2013-11-06 16:25:00,58.8,49.4,29.90,SE,135,4.7,-999.0,71,-99.99,,,0.00,Acu-Link.com,2013-11-06 21:25:00,
2013-11-06 16:40:00,58.3,49.3,29.89,East,90,3.2,-999.0,72,-99.99,,,0.00,Acu-Link.com,2013-11-06 21:40:00,
2013-11-06 16:55:00,57.7,49.1,29.89,East,90,2.7,-999.0,73,-99.99,,,0.00,Acu-Link.com,2013-11-06 21:55:00,
2013-11-06 17:10:00,57.4,48.8,29.88,WSW,247,4.7,-999.0,73,-99.99,,,0.00,Acu-Link.com,2013-11-06 22:10:00,
2013-11-06 17:25:00,57.2,49.0,29.88,NNW,337,5.8,-999.0,74,-99.99,,,0.00,Acu-Link.com,2013-11-06 22:25:00,
2013-11-06 17:40:00,57.2,49.0,29.87,East,90,9.4,-999.0,74,-99.99,,,0.00,Acu-Link.com,2013-11-06 22:40:00,
2013-11-06 17:55:00,57.2,49.0,29.87,East,90,6.3,-999.0,74,-99.99,,,0.00,Acu-Link.com,2013-11-06 22:55:00,
2013-11-06 18:10:00,57.2,49.0,29.87,ESE,112,4.7,-999.0,74,-99.99,,,0.00,Acu-Link.com,2013-11-06 23:10:00,
2013-11-06 18:25:00,57.4,48.8,29.87,ESE,112,4.7,-999.0,73,-99.99,,,0.00,Acu-Link.com,2013-11-06 23:25:00,
2013-11-06 18:41:00,57.0,48.8,29.87,South,180,6.8,-999.0,74,-99.99,,,0.00,Acu-Link.com,2013-11-06 23:41:00,
2013-11-06 18:56:00,57.0,48.8,29.85,NNW,337,5.8,-999.0,74,-99.99,,,0.00,Acu-Link.com,2013-11-06 23:56:00,
2013-11-06 19:11:00,56.7,48.9,29.84,NNW,337,2.7,-999.0,75,-99.99,,,0.00,Acu-Link.com,2013-11-07 00:11:00,
2013-11-06 19:26:00,56.7,49.2,29.83,NNE,22,3.2,-999.0,76,-99.99,,,0.00,Acu-Link.com,2013-11-07 00:26:00,
2013-11-06 19:41:00,56.8,49.0,29.83,West,270,3.7,-999.0,75,-99.99,,,0.00,Acu-Link.com,2013-11-07 00:41:00,
2013-11-06 19:56:00,56.7,48.9,29.82,SE,135,3.7,-999.0,75,-99.99,,,0.00,Acu-Link.com,2013-11-07 00:56:00,
2013-11-06 20:11:00,56.7,48.9,29.81,ESE,112,2.7,-999.0,75,-99.99,,,0.00,Acu-Link.com,2013-11-07 01:11:00,
2013-11-06 20:26:00,57.0,49.2,29.80,ESE,112,1.7,-999.0,75,-99.99,,,0.00,Acu-Link.com,2013-11-07 01:26:00,
2013-11-06 20:41:00,57.0,49.2,29.81,NNE,22,2.2,-999.0,75,-99.99,,,0.00,Acu-Link.com,2013-11-07 01:41:00,
2013-11-06 20:57:00,57.2,49.3,29.80,NNE,22,2.7,-999.0,75,-99.99,,,0.00,Acu-Link.com,2013-11-07 01:57:00,
2013-11-06 21:12:00,58.3,49.7,29.79,South,180,8.9,-999.0,73,-99.99,,,0.00,Acu-Link.com,2013-11-07 02:12:00,
2013-11-06 21:27:00,58.8,49.8,29.79,South,180,7.8,-999.0,72,-99.99,,,0.00,Acu-Link.com,2013-11-07 02:27:00,
2013-11-06 21:42:00,59.0,50.0,29.79,WSW,247,4.7,-999.0,72,-99.99,,,0.00,Acu-Link.com,2013-11-07 02:42:00,
2013-11-06 21:57:00,59.2,49.8,29.78,South,180,8.9,-999.0,71,-99.99,,,0.00,Acu-Link.com,2013-11-07 02:57:00,
2013-11-06 22:12:00,59.4,50.0,29.77,West,270,3.2,-999.0,71,-99.99,,,0.00,Acu-Link.com,2013-11-07 03:12:00,
2013-11-06 22:27:00,59.4,50.4,29.77,NW,315,3.2,-999.0,72,-99.99,,,0.00,Acu-Link.com,2013-11-07 03:27:00,
2013-11-06 22:42:00,59.4,50.4,29.77,SSE,157,6.3,-999.0,72,-99.99,,,0.00,Acu-Link.com,2013-11-07 03:42:00,
2013-11-06 22:57:00,59.2,50.9,29.78,SW,225,2.7,-999.0,74,-99.99,,,0.00,Acu-Link.com,2013-11-07 03:57:00,
2013-11-06 23:13:00,58.5,51.3,29.78,West,270,2.7,-999.0,77,-99.99,,,0.00,Acu-Link.com,2013-11-07 04:13:00,
2013-11-06 23:28:00,58.3,51.1,29.77,SW,225,4.2,-999.0,77,-99.99,,,0.00,Acu-Link.com,2013-11-07 04:28:00,
2013-11-06 23:43:00,58.1,51.3,29.76,SW,225,4.7,-999.0,78,-99.99,,,0.00,Acu-Link.com,2013-11-07 04:43:00,
2013-11-06 23:58:00,57.9,51.8,29.76,SW,225,5.3,-999.0,80,-99.99,,,0.00,Acu-Link.com,2013-11-07 04:58:00,